^^
Station Historical Data
 
Daily Summary for February 21, 2018 Units:  English    Metric   Both
« Previous Day
Next Day »
Daily Weekly Monthly Yearly Custom
  Current: High: Low: Average:
Temperature: 72.7 °F TemperatureF °F 72.7 °F 69.8 °F
Dew Point: 68.9 °F DewpointF °F 68.7 °F 66 °F
Humidity: 88% Humidity% 86% 84%
Wind Speed: 1.6mph WindSpeedMPHmph 0.0mph 0.7mph
Wind Gust: 4.9mph WindSpeedGustMPHmph - -
WindENE - - SE
Pressure: 30.29 in PressureIn in 30.29 in -
Precipitation: 0.00 in      
Historical Graphs
 
 
Tabular Data for February 21, 2018
Time Temperature Dew Point Pressure Wind Wind Speed Wind Gust Humidity Rainfall Rate (Hourly) solar
TemperatureF °F DewpointF °F PressureIn in Calm     Humidity% HourlyPrecipIn in SolarRadiationWatts/m^2 W/m2
00:00 73.6 °F 69.1 °F 30.30 in SSW 0.7 mph 2.5 mph 86% 0.00 in 0.0 W/m2
00:06 73.4 °F 68.9 °F 30.30 in SE 0.7 mph 4.9 mph 86% 0.00 in 0.0 W/m2
00:11 73.4 °F 69.3 °F 30.30 in SSE 0.2 mph 2.5 mph 87% 0.00 in 0.0 W/m2
00:17 73.4 °F 68.9 °F 30.30 in SSW 2.2 mph 4.9 mph 86% 0.00 in 0.0 W/m2
00:22 73.4 °F 68.9 °F 30.29 in ESE 0.7 mph 2.5 mph 86% 0.00 in 0.0 W/m2
00:28 73.2 °F 68.7 °F 30.30 in ESE 1.8 mph 2.5 mph 86% 0.00 in 0.0 W/m2
00:33 73.2 °F 68.7 °F 30.30 in ESE 0.2 mph 2.5 mph 86% 0.00 in 0.0 W/m2
00:38 73.2 °F 69.1 °F 30.30 in Calm   2.5 mph 87% 0.00 in 0.0 W/m2
00:44 73.0 °F 68.9 °F 30.30 in SE 1.6 mph 4.9 mph 87% 0.00 in 0.0 W/m2
00:49 73.0 °F 68.9 °F 30.30 in Calm   2.5 mph 87% 0.00 in 0.0 W/m2
00:55 73.0 °F 69.3 °F 30.30 in Calm   2.5 mph 88% 0.00 in 0.0 W/m2
01:00 72.9 °F 69.1 °F 30.30 in SSW 0.2 mph 2.5 mph 88% 0.00 in 0.0 W/m2
01:05 72.9 °F 69.1 °F 30.29 in SE 0.2 mph 2.5 mph 88% 0.00 in 0.0 W/m2
01:11 72.9 °F 69.1 °F 30.30 in NE 1.3 mph 2.5 mph 88% 0.00 in 0.0 W/m2
01:16 72.9 °F 69.1 °F 30.30 in Calm     88% 0.00 in 0.0 W/m2
01:21 72.7 °F 68.9 °F 30.30 in South 1.6 mph 2.5 mph 88% 0.00 in 0.0 W/m2
01:26 72.7 °F 68.9 °F 30.31 in Calm   2.5 mph 88% 0.00 in 0.0 W/m2
01:31 72.7 °F 68.9 °F 30.30 in NE 1.3 mph 2.5 mph 88% 0.00 in 0.0 W/m2
01:36 72.7 °F 68.9 °F 30.30 in SE 0.9 mph 2.5 mph 88% 0.00 in 0.0 W/m2
01:42 72.7 °F 68.9 °F 30.30 in Calm   2.5 mph 88% 0.00 in 0.0 W/m2
01:47 72.7 °F 68.9 °F 30.30 in Calm   2.5 mph 88% 0.00 in 0.0 W/m2
01:52 72.7 °F 68.9 °F 30.29 in ENE 1.6 mph 4.9 mph 88% 0.00 in 0.0 W/m2
Spring Hill, FL, USA
Compliments of Weather Underground - 2 mb